格洛纳斯-769 COSMOS 2178 [GLONASS]

导读 | 豆包AI

COSMOS 2178是独联体(CIS)继承自苏联航天遗产后,于1992年1月29日发射的格洛纳斯(GLONASS)全球导航卫星系统组网卫星。作为格洛纳斯系统早期补网卫星,它承担着全球定位、导航与授时服务任务,为系统实现全球覆盖提供支撑,可服务于军事与民用领域的全天候三维定位、测速及授时需求,是格洛纳斯发展历程中重要的组网节点之一。

Basic Information
目录编号:
21854
目录名称:
COSMOS 2178 (GLONASS)
国际标识:
1992-005B
轨道中心:
EARTH
卫星名称:
格洛纳斯-769
卫星全名:
格洛纳斯-769 COSMOS 2178 [GLONASS]
卫星状态:
在轨 (已飞行12508 天)
发射日期:
1992-01-29 UTC
国别 :
俄罗斯(独联体) (CIS)
星等 :
--
Orbit Information
数据来源 国际轨道数据 AOE轨道数据
星历时间 2026-04-23T17:54:51+0800
5天前
查看轨道信息
2026-04-24T06:00:00+0800
5天前
查看轨道信息
半长轴 25507.746km 25507.738km
偏心率 0.0031432 0.0031417
轨道倾角 64.861° 64.861°
近地点辐角 29.633° 29.660°
升交点赤经 71.897° 71.880°
平近点角 147.379° 173.681°
近地点 19049.433km 19049.463km
远地点 19209.785km 19209.739km
周期 675.722分钟 675.721分钟
每日圈数 2.131055 2.131056
Detailed Information
平衡模式:
三轴稳定
覆盖范围:
全球
运营商:
列舍特涅夫卫星信息系统
运营商所在国:
俄罗斯
制造商(研发单位):
列舍特涅夫卫星信息系统
制造商所在国:
俄罗斯
使用方式:
暂无
Satellite Introduction
格洛纳斯(GLONASS )是苏联/俄罗斯研制卫星导航系统。标准配置为24颗卫星,其中18颗卫星就能保证该系统为俄罗斯境内用户提供全部服务。该卫星已退役。
2D Orbit Map
3D Orbit Map
Orbit Altitude Analysis Chart
Orbit Inclination Analysis Chart
Orbit Comprehensive Analysis Chart
View Comprehensive Chart